GW7002 Weather Reports


time (UTC)temp
C
wind
direction
speed
KPH
gust
KPH
rain 1hr
cm
rain 24hr
cm
rain mn
cm
humidity
%
barometer
mb
20260502164007 17 142 1.6 11.3 0.00 0.00 0.00 23 1021.2
20260502163507 17 133 1.6 16.1 0.00 0.00 0.00 22 1021.1
20260502163040 17 134 3.2 16.1 0.00 0.00 0.00 21 1021.2
20260502162508 17 121 1.6 6.4 0.00 0.00 0.00 23 1021.2
20260502162011 17 140 3.2 14.5 0.00 0.00 0.00 23 1021.1
20260502161522 17 109 1.6 14.5 0.00 0.00 0.00 23 1021.2
20260502161012 17 165 0.0 8.0 0.00 0.00 0.00 26 1021.2
20260502160508 16 146 4.8 8.0 0.00 0.00 0.00 26 1021.2
20260502152009 15 130 1.6 4.8 0.00 0.00 0.00 37 1021.3
20260502151520 14 143 3.2 4.8 0.00 0.00 0.00 37 1021.3
20260502151006 13 138 0.0 4.8 0.00 0.00 0.00 41 1021.3
20260502150507 13 130 1.6 4.8 0.00 0.00 0.00 42 1021.3
20260502130509 10 135 1.6 1.6 0.00 0.00 0.00 40 1021.2
20260502123513 9 135 0.0 3.2 0.00 0.00 0.00 39 1020.9
20260502123022 9 133 0.0 3.2 0.00 0.00 0.00 38 1020.9
20260502122508 10 144 0.0 3.2 0.00 0.00 0.00 38 1020.9
20260502122012 10 144 0.0 4.8 0.00 0.00 0.00 38 1020.9
20260502121526 10 180 0.0 4.8 0.00 0.00 0.00 38 1020.9
20260502121008 9 182 1.6 4.8 0.00 0.00 0.00 39 1020.8
20260502120509 9 188 0.0 4.8 0.00 0.00 0.00 40 1020.8
20260502115508 9 187 0.0 4.8 0.00 0.00 0.00 40 1020.9
20260502115008 8 166 0.0 3.2 0.00 0.00 0.00 41 1020.9
20260502114526 8 149 0.0 1.6 0.00 0.00 0.00 41 1020.9
20260502114010 8 196 0.0 3.2 0.00 0.00 0.00 43 1020.9
20260502113508 9 196 0.0 3.2 0.00 0.00 0.00 42 1020.9
20260502113027 9 190 0.0 3.2 0.00 0.00 0.00 43 1020.9
20260502112506 9 190 0.0 3.2 0.00 0.00 0.00 43 1021.0
20260502112009 10 184 0.0 3.2 0.00 0.00 0.00 42 1021.0
20260502111505 10 188 0.0 4.8 0.00 0.00 0.00 42 1021.0
20260502111004 10 195 1.6 6.4 0.00 0.00 0.00 42 1021.0
20260502110510 10 169 0.0 6.4 0.00 0.00 0.00 42 1020.9
20260502110021 10 186 1.6 6.4 0.00 0.00 0.00 42 1020.9
20260502105505 10 187 1.6 8.0 0.00 0.00 0.00 41 1020.9
20260502105007 10 185 1.6 8.0 0.00 0.00 0.00 40 1020.9
20260502104518 10 185 1.6 4.8 0.00 0.00 0.00 40 1020.9
20260502104004 10 209 1.6 4.8 0.00 0.00 0.00 40 1021.0
20260502103507 10 196 1.6 4.8 0.00 0.00 0.00 40 1021.0
20260502103006 10 190 0.0 3.2 0.00 0.00 0.00 40 1021.0
20260502102506 10 173 0.0 3.2 0.00 0.00 0.00 39 1020.9
20260502102006 10 178 0.0 3.2 0.00 0.00 0.00 39 1020.8
20260502101514 10 142 0.0 3.2 0.00 0.00 0.00 38 1020.8
20260502101007 10 187 0.0 3.2 0.00 0.00 0.00 38 1020.7
20260502100503 10 186 0.0 3.2 0.00 0.00 0.00 39 1020.7
20260502091508 10 233 0.0 1.6 0.00 0.00 0.00 39 1020.4
20260502091006 10 234 0.0 3.2 0.00 0.00 0.00 40 1020.5
20260502090505 10 234 0.0 3.2 0.00 0.00 0.00 40 1020.5
20260502071521 10 190 0.0 3.2 0.00 0.00 0.00 40 1020.8
20260502071014 10 190 0.0 3.2 0.00 0.00 0.00 42 1020.8
20260502070504 10 190 0.0 3.2 0.00 0.00 0.00 38 1020.8
20260502070008 11 191 0.0 3.2 0.00 0.00 0.00 39 1020.9
20260502065505 10 191 1.6 3.2 0.00 0.00 0.00 37 1020.9
20260502065007 10 192 0.0 3.2 0.00 0.00 0.00 36 1020.8
20260502064531 10 211 0.0 3.2 0.00 0.00 0.00 36 1020.9
20260502064009 10 211 0.0 3.2 0.00 0.00 0.00 37 1020.8
20260502063507 10 210 0.0 3.2 0.00 0.00 0.00 39 1020.9
20260502063009 10 210 0.0 3.2 0.00 0.00 0.00 40 1020.9
20260502062508 10 210 0.0 3.2 0.00 0.00 0.00 39 1020.9
20260502062013 10 210 0.0 0.0 0.00 0.00 0.00 41 1020.8
20260502061525 10 210 0.0 3.2 0.00 0.00 0.00 38 1020.8
20260502061007 10 210 0.0 3.2 0.00 0.00 0.00 38 1020.8
20260502060509 10 211 0.0 3.2 0.00 0.00 0.00 39 1020.8
20260502060025 10 211 0.0 3.2 0.00 0.00 0.00 37 1020.8
20260502055506 11 211 0.0 3.2 0.00 0.00 0.00 35 1020.7
20260502055006 11 206 0.0 3.2 0.00 0.00 0.00 35 1020.7
20260502054513 11 215 0.0 3.2 0.00 0.00 0.00 35 1020.6
20260502054007 11 215 0.0 3.2 0.00 0.00 0.00 35 1020.6
20260502053506 11 223 0.0 3.2 0.00 0.00 0.00 35 1020.7
20260502053015 11 257 0.0 3.2 0.00 0.00 0.00 36 1020.6
20260502052505 11 296 0.0 3.2 0.00 0.00 0.00 36 1020.6
20260502052007 11 288 0.0 3.2 0.00 0.00 0.00 36 1020.6
20260502051519 11 215 0.0 3.2 0.00 0.00 0.00 36 1020.6
20260502051007 11 209 0.0 3.2 0.00 0.00 0.00 36 1020.6
20260502050514 10 217 0.0 3.2 0.00 0.00 0.00 36 1020.6
20260502050012 10 215 0.0 3.2 0.00 0.00 0.00 36 1020.7
20260502045507 10 220 0.0 3.2 0.00 0.00 0.00 37 1020.7
20260502045010 10 216 0.0 3.2 0.00 0.00 0.00 37 1020.7
20260502044511 10 216 0.0 3.2 0.00 0.00 0.00 37 1020.7
20260502044007 10 216 0.0 3.2 0.00 0.00 0.00 38 1020.7
20260502043508 10 216 0.0 3.2 0.00 0.00 0.00 38 1020.7
20260502043015 10 216 0.0 0.0 0.00 0.00 0.00 38 1020.7
20260502042507 10 216 0.0 1.6 0.00 0.00 0.00 37 1020.6
20260502042007 10 216 0.0 1.6 0.00 0.00 0.00 37 1020.6
20260502041505 10 216 0.0 0.0 0.00 0.00 0.00 37 1020.5
20260502041008 11 216 0.0 3.2 0.00 0.00 0.00 36 1020.5
20260502040507 11 216 0.0 3.2 0.00 0.00 0.00 36 1020.4
20260502040010 11 216 0.0 3.2 0.00 0.00 0.00 35 1020.4
20260502035504 11 216 0.0 3.2 0.00 0.00 0.00 36 1020.4
20260502035004 11 216 0.0 3.2 0.00 0.00 0.00 35 1020.3
20260502034508 11 232 1.6 3.2 0.00 0.00 0.00 34 1020.3
20260502034005 11 259 0.0 3.2 0.00 0.00 0.00 34 1020.2
20260502033503 11 259 0.0 3.2 0.00 0.00 0.00 34 1020.2
20260502033014 11 292 0.0 3.2 0.00 0.00 0.00 34 1020.1
20260502032506 11 292 0.0 3.2 0.00 0.00 0.00 35 1020.1
20260502032005 11 292 0.0 3.2 0.00 0.00 0.00 34 1019.9
20260502031513 11 292 0.0 3.2 0.00 0.00 0.00 35 1019.9
20260502031006 12 293 0.0 3.2 0.00 0.00 0.00 35 1019.8
20260502030503 12 293 0.0 3.2 0.00 0.00 0.00 36 1019.7
20260502030010 12 293 0.0 3.2 0.00 0.00 0.00 35 1019.6
20260502025505 12 273 0.0 3.2 0.00 0.00 0.00 35 1019.6
20260502025004 12 275 0.0 3.2 0.00 0.00 0.00 35 1019.6
20260502024510 12 284 0.0 3.2 0.00 0.00 0.00 35 1019.5
20260502024003 12 284 0.0 3.2 0.00 0.00 0.00 35 1019.5
20260502023503 12 284 0.0 3.2 0.00 0.00 0.00 34 1019.5
20260502023005 13 284 0.0 3.2 0.00 0.00 0.00 33 1019.5
20260502022506 13 281 0.0 3.2 0.00 0.00 0.00 31 1019.4
20260502022007 13 284 0.0 3.2 0.00 0.00 0.00 29 1019.4
20260502021512 14 301 0.0 4.8 0.00 0.00 0.00 27 1019.3
20260502021004 14 313 0.0 4.8 0.00 0.00 0.00 26 1019.3
20260502020508 14 306 1.6 4.8 0.00 0.00 0.00 26 1019.3
20260502020010 15 280 1.6 4.8 0.00 0.00 0.00 25 1019.2
20260502015507 15 306 0.0 12.9 0.00 0.00 0.00 26 1019.2
20260502015004 15 302 1.6 12.9 0.00 0.00 0.00 26 1019.2
20260502014529 15 324 1.6 9.7 0.00 0.00 0.00 26 1019.1
20260502014008 15 333 1.6 9.7 0.00 0.00 0.00 26 1019.1
20260502013504 15 325 1.6 9.7 0.00 0.00 0.00 25 1019.1
20260502013008 15 277 3.2 9.7 0.00 0.00 0.00 25 1019.1
20260502012507 15 360 3.2 9.7 0.00 0.00 0.00 27 1019.1
20260502012007 15 328 3.2 9.7 0.00 0.00 0.00 26 1019.1
20260502011510 15 343 1.6 8.0 0.00 0.00 0.00 26 1019.1
20260502011005 15 332 3.2 9.7 0.00 0.00 0.00 26 1019.1
20260502010505 16 303 1.6 16.1 0.00 0.00 0.00 28 1019.1
20260502010010 16 15 4.8 16.1 0.00 0.00 0.00 27 1019.1
20260502005508 16 343 3.2 9.7 0.00 0.00 0.00 27 1019.1
20260502005008 16 300 3.2 9.7 0.00 0.00 0.00 27 1019.1
20260502004515 16 316 1.6 12.9 0.00 0.00 0.00 27 1019.1
20260502004008 16 302 1.6 12.9 0.00 0.00 0.00 27 1019.1
20260502003507 16 292 3.2 9.7 0.00 0.00 0.00 27 1019.1
20260502003014 16 314 1.6 12.9 0.00 0.00 0.00 27 1019.1
20260502002503 16 352 3.2 12.9 0.00 0.00 0.00 27 1019.2
20260502002007 17 324 1.6 12.9 0.00 0.00 0.00 28 1019.1
20260502001516 17 298 3.2 12.9 0.00 0.00 0.00 27 1019.2
20260502001004 16 281 1.6 9.7 0.00 0.00 0.00 28 1019.3
20260502000505 16 352 3.2 9.7 0.00 0.00 0.00 27 1019.3
20260502000036 17 346 1.6 11.3 0.00 0.00 0.00 28 1019.3
20260501235506 17 304 3.2 12.9 0.00 0.00 0.00 27 1019.3
20260501235002 17 311 1.6 12.9 0.00 0.00 0.00 28 1019.3
20260501234515 17 326 3.2 12.9 0.00 0.00 0.00 28 1019.3
20260501234007 17 342 1.6 11.3 0.00 0.00 0.00 28 1019.3
20260501233506 17 352 3.2 11.3 0.00 0.00 0.00 27 1019.4
20260501233010 17 288 3.2 12.9 0.00 0.00 0.00 28 1019.3
20260501232509 17 327 3.2 14.5 0.00 0.00 0.00 28 1019.3
20260501232011 17 351 4.8 14.5 0.00 0.00 0.00 25 1019.3
20260501231517 17 333 3.2 12.9 0.00 0.00 0.00 26 1019.3
20260501231004 17 352 3.2 12.9 0.00 0.00 0.00 26 1019.3
20260501230510 17 333 3.2 12.9 0.00 0.00 0.00 26 1019.3
20260501230014 17 342 3.2 9.7 0.00 0.00 0.00 25 1019.4
20260501225505 17 345 3.2 16.1 0.00 0.00 0.00 28 1019.5
20260501225009 17 320 3.2 16.1 0.00 0.00 0.00 25 1019.5
20260501224517 17 340 3.2 16.1 0.00 0.00 0.00 27 1019.6
20260501224006 17 310 3.2 14.5 0.00 0.00 0.00 26 1019.6
20260501223508 17 325 3.2 14.5 0.00 0.00 0.00 28 1019.6
20260501223018 17 288 3.2 8.0 0.00 0.00 0.00 27 1019.6
20260501222508 17 302 3.2 8.0 0.00 0.00 0.00 26 1019.7
20260501222007 17 13 1.6 8.0 0.00 0.00 0.00 25 1019.7
20260501221521 17 320 3.2 9.7 0.00 0.00 0.00 27 1019.7
20260501221008 17 296 3.2 12.9 0.00 0.00 0.00 25 1019.8
20260501220508 17 296 1.6 12.9 0.00 0.00 0.00 27 1019.9
20260501220013 17 280 3.2 8.0 0.00 0.00 0.00 26 1019.9
20260501215505 17 302 3.2 17.7 0.00 0.00 0.00 30 1019.9
20260501215009 17 288 4.8 17.7 0.00 0.00 0.00 26 1019.9
20260501214515 17 285 4.8 9.7 0.00 0.00 0.00 25 1020.0
20260501214009 17 14 3.2 12.9 0.00 0.00 0.00 26 1020.1
20260501213509 17 336 3.2 12.9 0.00 0.00 0.00 26 1020.1
20260501213016 17 263 3.2 9.7 0.00 0.00 0.00 25 1020.0
20260501212506 17 5 1.6 8.0 0.00 0.00 0.00 26 1020.1
20260501212008 17 316 3.2 8.0 0.00 0.00 0.00 25 1020.1
20260501211520 17 300 3.2 14.5 0.00 0.00 0.00 26 1020.1
20260501211006 17 311 3.2 14.5 0.00 0.00 0.00 28 1020.2
20260501210507 17 313 1.6 12.9 0.00 0.00 0.00 29 1020.2
20260501210021 17 352 3.2 12.9 0.00 0.00 0.00 26 1020.2
20260501205510 17 350 3.2 14.5 0.00 0.00 0.00 26 1020.4
20260501205006 17 317 3.2 14.5 0.00 0.00 0.00 28 1020.4
20260501204514 17 313 3.2 9.7 0.00 0.00 0.00 30 1020.3
20260501204008 17 313 1.6 9.7 0.00 0.00 0.00 26 1020.3
20260501203506 17 299 3.2 9.7 0.00 0.00 0.00 26 1020.3
20260501203018 17 275 3.2 8.0 0.00 0.00 0.00 31 1020.3
20260501202507 16 316 3.2 12.9 0.00 0.00 0.00 29 1020.3
20260501202009 16 307 4.8 12.9 0.00 0.00 0.00 28 1020.3
20260501201517 16 290 3.2 12.9 0.00 0.00 0.00 31 1020.3
20260501201008 16 344 4.8 9.7 0.00 0.00 0.00 27 1020.3
20260501200508 16 5 3.2 8.0 0.00 0.00 0.00 28 1020.4
20260501200015 16 331 1.6 8.0 0.00 0.00 0.00 27 1020.4
20260501195507 17 352 3.2 9.7 0.00 0.00 0.00 26 1020.4
20260501195007 17 352 1.6 9.7 0.00 0.00 0.00 28 1020.4
20260501194529 16 217 3.2 12.9 0.00 0.00 0.00 26 1020.4
20260501194006 16 273 1.6 12.9 0.00 0.00 0.00 29 1020.5
20260501193507 16 281 1.6 4.8 0.00 0.00 0.00 29 1020.5
20260501193020 16 267 1.6 9.7 0.00 0.00 0.00 27 1020.6
20260501192506 16 317 0.0 9.7 0.00 0.00 0.00 30 1020.7
20260501192007 15 44 1.6 8.0 0.00 0.00 0.00 28 1020.7
20260501191518 16 24 1.6 8.0 0.00 0.00 0.00 29 1020.7
20260501191007 15 329 1.6 12.9 0.00 0.00 0.00 30 1020.8
20260501190507 16 55 3.2 12.9 0.00 0.00 0.00 29 1020.9
20260501190021 15 45 3.2 8.0 0.00 0.00 0.00 32 1020.8
20260501185509 16 326 1.6 6.4 0.00 0.00 0.00 29 1020.9
20260501185010 15 41 1.6 6.4 0.00 0.00 0.00 30 1020.9
20260501184520 15 291 1.6 3.2 0.00 0.00 0.00 30 1020.9
20260501184011 15 233 0.0 6.4 0.00 0.00 0.00 26 1021.0
20260501183511 15 309 3.2 9.7 0.00 0.00 0.00 29 1021.1
20260501183014 15 346 1.6 8.0 0.00 0.00 0.00 29 1021.2
20260501182507 15 82 0.0 3.2 0.00 0.00 0.00 28 1021.1
20260501182009 15 311 0.0 6.4 0.00 0.00 0.00 30 1021.2
20260501181520 15 49 1.6 6.4 0.00 0.00 0.00 30 1021.2
20260501181006 15 360 1.6 4.8 0.00 0.00 0.00 30 1021.1
20260501180507 15 109 0.0 6.4 0.00 0.00 0.00 29 1021.3
20260501180031 15 344 0.0 6.4 0.00 0.00 0.00 29 1021.3
20260501175510 14 345 0.0 6.4 0.00 0.00 0.00 30 1021.3
20260501175011 13 338 1.6 4.8 0.00 0.00 0.00 31 1021.3
20260501174529 14 311 1.6 4.8 0.00 0.00 0.00 31 1021.4
20260501174008 14 352 1.6 4.8 0.00 0.00 0.00 30 1021.4
20260501173507 14 78 1.6 8.0 0.00 0.00 0.00 30 1021.4
20260501173023 14 11 1.6 8.0 0.00 0.00 0.00 31 1021.4
20260501172508 13 13 1.6 4.8 0.00 0.00 0.00 33 1021.4
20260501172013 13 44 1.6 8.0 0.00 0.00 0.00 29 1021.5
20260501171518 14 321 1.6 8.0 0.00 0.00 0.00 32 1021.5
20260501171012 13 311 0.0 3.2 0.00 0.00 0.00 32 1021.5
20260501170507 13 92 0.0 3.2 0.00 0.00 0.00 32 1021.6
20260501170019 13 72 1.6 4.8 0.00 0.00 0.00 30 1021.7